Location: Ostrava
(49.8330°N, 18.2830°E)
Time: 01:36:50
(UTC+02:00)

Cosmos 2221 - Visible Passes

Search period start: 03 June 2015 00:00
Search period end: 13 June 2015 00:00
Orbit: 596 x 619 km, 82.5° (Epoch: 02 June)

Date Brightness Start Highest point End Pass type
(mag) Time Alt. Az. Time Alt. Az. Time Alt. Az.
03 Jun 2.6 21:58:16 10° N 22:02:42 76° ENE 22:06:55 11° SSE visible
03 Jun 5.1 23:37:37 10° NW 23:39:47 13° W 23:41:46 10° WSW visible
04 Jun 2.8 22:12:01 10° NNW 22:16:25 67° W 22:20:46 10° S visible
05 Jun 3.6 22:25:54 10° NNW 22:30:04 41° W 22:34:11 10° SSW visible
06 Jun 4.4 22:39:57 10° NNW 22:43:40 26° W 22:47:18 10° SW visible
07 Jun 5.0 22:54:18 10° NW 22:57:12 17° W 22:59:58 10° SW visible
08 Jun 2.6 21:29:17 10° N 21:33:43 88° W 21:38:08 10° S visible
08 Jun 5.4 23:09:36 10° WNW 23:10:42 11° W 23:11:33 10° W visible
09 Jun 3.3 21:43:04 10° NNW 21:47:24 54° W 21:51:41 10° S visible
10 Jun 4.1 21:57:01 10° NNW 22:01:01 34° W 22:04:57 10° SSW visible
11 Jun 4.8 22:11:10 10° NW 22:14:35 22° W 22:17:53 10° SW visible
12 Jun 5.3 22:25:45 10° NW 22:28:06 14° W 22:30:16 10° WSW visible
